Weather History for Laredo, TX

Change the Weather History Date:

Thursday, September 26, 2013

  Actual Average Record
Temperature  
Mean Temperature 86 °F 80 °F  
Max Temperature 98 °F 91 °F 106 °F (2005)
Min Temperature 74 °F 70 °F 51 °F (1989)
Degree Days  
Heating Degree Days 0 0  
Month to date heating degree days 0 0  
Since 1 July heating degree days 0 0  
Cooling Degree Days 21 15  
Month to date cooling degree days 488 481  
Year to date cooling degree days 3893 3724  
Growing Degree Days 35 (Base 50)    
Moisture  
Dew Point 69 °F    
Average Humidity 61    
Maximum Humidity 100    
Minimum Humidity 30    
Precipitation  
Precipitation 0.00 in 0.09 in 1.91 in (1980)
Month to date precipitation 1.59 2.58  
Year to date precipitation 14.46 15.57  
Sea Level Pressure  
Sea Level Pressure 29.80 in    
Wind  
Wind Speed 11 mph (SE)    
Max Wind Speed 18 mph    
Max Gust Speed 21 mph    
Visibility 10 miles    
Events      
T = Trace of Precipitation, MM = Missing Value Source: NWS Daily Summary

Daily Weather History Graph

Daily Weather History Graph

Search for Another Location

Airport:

Trip Planner

Search our weather history database for the weather conditions in past years. The results will help you decide how hot, cold, wet, or windy it might be!

Date:

Astronomy

Sep. 26, 2013 Rise Set
Actual Time 7:28 AM CDT 7:29 PM CDT
Civil Twilight 7:05 AM CDT 7:52 PM CDT
Nautical Twilight 6:37 AM CDT 8:19 PM CDT
Astronomical Twilight 6:10 AM CDT 8:46 PM CDT
Moon 12:04 AM CDT (9/26) 1:55 PM CDT (9/26)
Length of Visible Light 12h 47m
Length of Day
12h 01m
Waning Gibbous, 54% of the Moon is Illuminated
Sep 26
Waning Gibbous
Sep 26
Last Quarter
Oct 4
New
Oct 11
First Quarter
Oct 18
Full

Hourly Weather History & Observations

Time (CDT) Temp. Heat Index Dew Point Humidity Pressure Visibility Wind Dir Wind Speed Gust Speed Precip Events Conditions
12:56 AM 79.9 °F - 70.0 °F 72% 29.81 in 10.0 mi SE 11.5 mph - N/A   Clear
1:56 AM 79.0 °F - 70.9 °F 76% 29.81 in 10.0 mi SSE 11.5 mph - N/A   Clear
2:56 AM 77.0 °F - 70.9 °F 81% 29.80 in 10.0 mi SSE 9.2 mph - N/A   Clear
3:56 AM 75.9 °F - 70.9 °F 84% 29.79 in 10.0 mi SSE 8.1 mph - N/A   Clear
4:56 AM 74.8 °F - 72.0 °F 91% 29.79 in 10.0 mi SSE 10.4 mph - N/A   Clear
5:56 AM 74.8 °F - 72.9 °F 94% 29.80 in 10.0 mi SE 6.9 mph - N/A   Clear
6:56 AM 73.9 °F - 72.9 °F 96% 29.81 in 10.0 mi SE 5.8 mph - N/A   Clear
7:56 AM 73.9 °F - 73.9 °F 100% 29.82 in 10.0 mi ESE 5.8 mph - N/A   Clear
8:56 AM 77.9 °F - 72.0 °F 82% 29.84 in 10.0 mi SE 8.1 mph - N/A   Clear
9:56 AM 82.9 °F 86.3 °F 68.9 °F 62% 29.85 in 10.0 mi SSE 10.4 mph - N/A   Clear
10:56 AM 86.9 °F 89.6 °F 66.9 °F 51% 29.85 in 10.0 mi South 9.2 mph - N/A   Clear
11:56 AM 90.9 °F 93.1 °F 65.8 °F 43% 29.84 in 10.0 mi SSE 11.5 mph 17.3 mph N/A   Clear
12:56 PM 92.8 °F 95.2 °F 64.9 °F 40% 29.82 in 10.0 mi SE 10.4 mph - N/A   Clear
1:56 PM 95.0 °F 97.0 °F 63.9 °F 36% 29.80 in 10.0 mi ESE 11.5 mph 19.6 mph N/A   Clear
2:56 PM 95.9 °F 98.0 °F 63.9 °F 35% 29.77 in 10.0 mi SE 11.5 mph 16.1 mph N/A   Clear
3:56 PM 97.0 °F 98.3 °F 63.0 °F 32% 29.75 in 10.0 mi SE 8.1 mph 18.4 mph N/A   Clear
4:56 PM 97.9 °F 98.8 °F 61.9 °F 30% 29.74 in 10.0 mi SE 9.2 mph - N/A   Clear
5:56 PM 97.0 °F 97.4 °F 61.0 °F 30% 29.73 in 10.0 mi SE 11.5 mph - N/A   Clear
6:56 PM 95.0 °F 97.0 °F 63.9 °F 36% 29.73 in 10.0 mi SE 11.5 mph - N/A   Clear
7:56 PM 90.9 °F 94.8 °F 68.0 °F 47% 29.75 in 10.0 mi ESE 17.3 mph - N/A   Clear
8:56 PM 88.9 °F 93.0 °F 68.9 °F 51% 29.77 in 10.0 mi ESE 13.8 mph - N/A   Clear
9:56 PM 86.0 °F 92.2 °F 72.0 °F 63% 29.80 in 10.0 mi East 15.0 mph - N/A   Clear
10:56 PM 83.8 °F 89.8 °F 72.9 °F 69% 29.82 in 10.0 mi ESE 13.8 mph - N/A   Clear
11:56 PM 82.9 °F 88.5 °F 72.9 °F 71% 29.83 in 10.0 mi SE 13.8 mph - N/A   Clear